This is the latest recevied weather packets stored in our database for station/object DJ3AN. If no packets are shown the sender has not sent any weather packets the latest 10 day(s).
| Time | Temp. | Humidity | Pressure | Rain* | Wind** | Luminosity | Snow |
|---|---|---|---|---|---|---|---|
| 1777293306 | 15° C | 57% | 1024.3 hPa | 0 mm | - | - | - |
| 1777293006 | 15° C | 59% | 1024.3 hPa | 0 mm | - | - | - |
| 1777292706 | 15° C | 56% | 1024.3 hPa | 0 mm | - | - | - |
| 1777292406 | 14.44° C | 59% | 1024.4 hPa | 0 mm | - | - | - |
| 1777292106 | 14.44° C | 60% | 1024.4 hPa | 0 mm | - | - | - |
| 1777291806 | 13.89° C | 61% | 1024.3 hPa | 0 mm | - | - | - |
| 1777291506 | 14.44° C | 61% | 1024.4 hPa | 0 mm | - | - | - |
| 1777291206 | 14.44° C | 60% | 1024.4 hPa | 0 mm | - | - | - |
| 1777290906 | 13.89° C | 61% | 1024.4 hPa | 0 mm | - | - | - |
| 1777290607 | 13.89° C | 61% | 1024.5 hPa | 0 mm | - | - | - |
| 1777290306 | 13.89° C | 60% | 1024.4 hPa | 0 mm | - | - | - |
| 1777290006 | 13.89° C | 62% | 1024.4 hPa | 0 mm | - | - | - |
| 1777289706 | 13.89° C | 62% | 1024.4 hPa | 0 mm | - | - | - |
| 1777289406 | 13.89° C | 61% | 1024.4 hPa | 0 mm | - | - | - |
| 1777289106 | 13.89° C | 61% | 1024.4 hPa | 0 mm | - | - | - |
| 1777288806 | 13.33° C | 60% | 1024.4 hPa | 0 mm | - | - | - |
| 1777288506 | 13.33° C | 60% | 1024.4 hPa | 0 mm | - | - | - |
| 1777288206 | 13.33° C | 62% | 1024.5 hPa | 0 mm | - | - | - |
| 1777287906 | 13.33° C | 60% | 1024.5 hPa | 0 mm | - | - | - |
| 1777287606 | 13.33° C | 63% | 1024.5 hPa | 0 mm | - | - | - |
| 1777287306 | 12.78° C | 63% | 1024.5 hPa | 0 mm | - | - | - |
| 1777287007 | 12.22° C | 64% | 1024.6 hPa | 0 mm | - | - | - |
| 1777286706 | 12.22° C | 65% | 1024.6 hPa | 0 mm | - | - | - |
| 1777286405 | 12.22° C | 62% | 1024.7 hPa | 0 mm | - | - | - |
| 1777286106 | 12.22° C | 64% | 1024.7 hPa | 0 mm | - | - | - |
* Rain latest hour (hover to see other rain measurements)
** Current wind speed in m/s (hover to see current wind gust speed)